| time (UTC) | temp F | wind direction | speed MPH | gust MPH | rain 1hr in | rain 24hr in | rain mn in | humidity % | barometer mb |
| 20260504081736 | 58 | 353 | 5.0 | 5.0 | 0.00 | 0.00 | 0.00 | 73 | 1019.3 |
| 20260504081336 | 58 | 297 | 4.0 | 6.0 | 0.00 | 0.00 | 0.00 | 72 | 1019.3 |
| 20260504080936 | 58 | 317 | 3.0 | 6.0 | 0.00 | 0.00 | 0.00 | 73 | 1019.4 |
| 20260504080535 | 58 | 33 | 0.0 | 7.0 | 0.00 | 0.00 | 0.00 | 72 | 1019.3 |
| 20260504080135 | 58 | 315 | 4.0 | 8.0 | 0.00 | 0.00 | 0.00 | 72 | 1019.3 |
| 20260504070130 | 59 | 328 | 4.0 | 6.0 | 0.00 | 0.00 | 0.00 | 69 | 1018.9 |
| 20260504060128 | 60 | 301 | 1.0 | 4.0 | 0.00 | 0.00 | 0.00 | 68 | 1018.7 |
| 20260504050526 | 61 | 252 | 0.0 | 4.0 | 0.00 | 0.00 | 0.00 | 64 | 1018.4 |
| 20260504050126 | 62 | 234 | 3.0 | 6.0 | 0.00 | 0.00 | 0.00 | 65 | 1018.5 |
| 20260504045726 | 62 | 310 | 5.0 | 5.0 | 0.00 | 0.00 | 0.00 | 65 | 1018.4 |
| 20260504045326 | 62 | 256 | 3.0 | 5.0 | 0.00 | 0.00 | 0.00 | 64 | 1018.4 |
| 20260504044926 | 62 | 342 | 3.0 | 4.0 | 0.00 | 0.00 | 0.00 | 64 | 1018.3 |
| 20260504044525 | 62 | 256 | 0.0 | 6.0 | 0.00 | 0.00 | 0.00 | 64 | 1018.2 |
| 20260504044125 | 62 | 267 | 2.0 | 8.0 | 0.00 | 0.00 | 0.00 | 63 | 1018.3 |
| 20260504043725 | 62 | 211 | 3.0 | 5.0 | 0.00 | 0.00 | 0.00 | 63 | 1018.3 |
| 20260504043325 | 62 | 315 | 4.0 | 4.0 | 0.00 | 0.00 | 0.00 | 63 | 1018.2 |
| 20260504042925 | 63 | 225 | 1.0 | 4.0 | 0.00 | 0.00 | 0.00 | 63 | 1018.1 |
| 20260504042525 | 63 | 247 | 3.0 | 6.0 | 0.00 | 0.00 | 0.00 | 62 | 1018.2 |
| 20260504042124 | 63 | 195 | 3.0 | 6.0 | 0.00 | 0.00 | 0.00 | 62 | 1018.2 |
| 20260504041724 | 63 | 319 | 6.0 | 6.0 | 0.00 | 0.00 | 0.00 | 62 | 1018.0 |
| 20260504041323 | 63 | 232 | 3.0 | 7.0 | 0.00 | 0.00 | 0.00 | 62 | 1017.9 |
| 20260504040923 | 63 | 265 | 1.0 | 6.0 | 0.00 | 0.00 | 0.00 | 62 | 1017.9 |
| 20260504040523 | 64 | 267 | 5.0 | 6.0 | 0.00 | 0.00 | 0.00 | 61 | 1017.8 |
| 20260504040123 | 64 | 310 | 4.0 | 6.0 | 0.00 | 0.00 | 0.00 | 61 | 1017.7 |
| 20260504035723 | 64 | 273 | 1.0 | 6.0 | 0.00 | 0.00 | 0.00 | 61 | 1017.6 |
| 20260504035323 | 64 | 270 | 3.0 | 7.0 | 0.00 | 0.00 | 0.00 | 59 | 1017.6 |
| 20260504034922 | 65 | 247 | 4.0 | 6.0 | 0.00 | 0.00 | 0.00 | 59 | 1017.6 |
| 20260504034523 | 65 | 267 | 2.0 | 4.0 | 0.00 | 0.00 | 0.00 | 59 | 1017.5 |
| 20260504034122 | 65 | 222 | 2.0 | 4.0 | 0.00 | 0.00 | 0.00 | 58 | 1017.7 |
| 20260504033722 | 65 | 256 | 4.0 | 7.0 | 0.00 | 0.00 | 0.00 | 58 | 1017.7 |
| 20260504033322 | 65 | 252 | 3.0 | 8.0 | 0.00 | 0.00 | 0.00 | 58 | 1017.5 |
| 20260504032922 | 65 | 225 | 0.0 | 6.0 | 0.00 | 0.00 | 0.00 | 58 | 1017.5 |
| 20260504032522 | 66 | 346 | 1.0 | 6.0 | 0.00 | 0.00 | 0.00 | 58 | 1017.5 |
| 20260504032122 | 66 | 205 | 6.0 | 10.0 | 0.00 | 0.00 | 0.00 | 57 | 1017.6 |
| 20260504031722 | 66 | 258 | 1.0 | 9.0 | 0.00 | 0.00 | 0.00 | 57 | 1017.4 |
| 20260504031322 | 67 | 281 | 1.0 | 6.0 | 0.00 | 0.00 | 0.00 | 57 | 1017.4 |
| 20260504030922 | 67 | 292 | 3.0 | 8.0 | 0.00 | 0.00 | 0.00 | 57 | 1017.4 |
| 20260504030521 | 67 | 322 | 3.0 | 7.0 | 0.00 | 0.00 | 0.00 | 56 | 1017.3 |
| 20260504030121 | 67 | 218 | 4.0 | 5.0 | 0.00 | 0.00 | 0.00 | 56 | 1017.2 |
| 20260504025721 | 68 | 228 | 4.0 | 9.0 | 0.00 | 0.00 | 0.00 | 55 | 1017.2 |
| 20260504025321 | 68 | 225 | 3.0 | 8.0 | 0.00 | 0.00 | 0.00 | 55 | 1017.2 |
| 20260504024520 | 69 | 229 | 3.0 | 7.0 | 0.00 | 0.00 | 0.00 | 54 | 1016.8 |
| 20260504024120 | 69 | 317 | 3.0 | 7.0 | 0.00 | 0.00 | 0.00 | 54 | 1016.9 |
| 20260504023320 | 70 | 276 | 4.0 | 8.0 | 0.00 | 0.00 | 0.00 | 53 | 1016.6 |
| 20260504022920 | 71 | 281 | 1.0 | 7.0 | 0.00 | 0.00 | 0.00 | 53 | 1016.6 |
| 20260504022522 | 71 | 317 | 8.0 | 9.0 | 0.00 | 0.00 | 0.00 | 51 | 1016.6 |
| 20260504022119 | 72 | 323 | 4.0 | 8.0 | 0.00 | 0.00 | 0.00 | 51 | 1016.6 |
| 20260504021319 | 74 | 319 | 5.0 | 9.0 | 0.00 | 0.00 | 0.00 | 50 | 1016.4 |
| 20260504020919 | 74 | 265 | 3.0 | 6.0 | 0.00 | 0.00 | 0.00 | 50 | 1016.4 |
| 20260504020519 | 75 | 247 | 3.0 | 8.0 | 0.00 | 0.00 | 0.00 | 49 | 1016.5 |
| 20260504020119 | 75 | 272 | 6.0 | 7.0 | 0.00 | 0.00 | 0.00 | 50 | 1016.4 |
| 20260504015718 | 75 | 308 | 5.0 | 9.0 | 0.00 | 0.00 | 0.00 | 50 | 1016.5 |
| 20260504015318 | 75 | 256 | 5.0 | 12.0 | 0.00 | 0.00 | 0.00 | 50 | 1016.3 |
| 20260504014918 | 75 | 240 | 3.0 | 8.0 | 0.00 | 0.00 | 0.00 | 50 | 1016.3 |
| 20260504014118 | 74 | 243 | 6.0 | 7.0 | 0.00 | 0.00 | 0.00 | 51 | 1016.4 |
| 20260504013718 | 74 | 238 | 4.0 | 9.0 | 0.00 | 0.00 | 0.00 | 51 | 1016.4 |
| 20260504013318 | 74 | 247 | 6.0 | 9.0 | 0.00 | 0.00 | 0.00 | 51 | 1016.4 |
| 20260504012917 | 74 | 276 | 6.0 | 9.0 | 0.00 | 0.00 | 0.00 | 52 | 1016.4 |
| 20260504012517 | 73 | 225 | 4.0 | 8.0 | 0.00 | 0.00 | 0.00 | 52 | 1016.5 |
| 20260504012117 | 73 | 315 | 4.0 | 12.0 | 0.00 | 0.00 | 0.00 | 52 | 1016.2 |
| 20260504011717 | 73 | 285 | 3.0 | 16.0 | 0.00 | 0.00 | 0.00 | 53 | 1016.2 |
| 20260504011317 | 73 | 220 | 8.0 | 12.0 | 0.00 | 0.00 | 0.00 | 53 | 1016.5 |
| 20260504010917 | 73 | 228 | 3.0 | 15.0 | 0.00 | 0.00 | 0.00 | 53 | 1016.3 |
| 20260504010116 | 73 | 297 | 5.0 | 10.0 | 0.00 | 0.00 | 0.00 | 54 | 1016.4 |
| 20260504005717 | 73 | 230 | 5.0 | 7.0 | 0.00 | 0.00 | 0.00 | 53 | 1016.4 |
| 20260504005316 | 73 | 312 | 4.0 | 10.0 | 0.00 | 0.00 | 0.00 | 53 | 1016.2 |
| 20260504004916 | 73 | 216 | 8.0 | 8.0 | 0.00 | 0.00 | 0.00 | 54 | 1016.2 |
| 20260504004516 | 73 | 235 | 3.0 | 8.0 | 0.00 | 0.00 | 0.00 | 54 | 1016.2 |
| 20260504004116 | 73 | 237 | 4.0 | 11.0 | 0.00 | 0.00 | 0.00 | 54 | 1016.2 |
| 20260504003717 | 73 | 277 | 0.0 | 8.0 | 0.00 | 0.00 | 0.00 | 54 | 1016.1 |
| 20260504003315 | 73 | 233 | 6.0 | 9.0 | 0.00 | 0.00 | 0.00 | 54 | 1016.1 |
| 20260504002915 | 73 | 321 | 6.0 | 10.0 | 0.00 | 0.00 | 0.00 | 54 | 1016.0 |
| 20260504002515 | 73 | 285 | 3.0 | 9.0 | 0.00 | 0.00 | 0.00 | 54 | 1016.0 |
| 20260504002115 | 73 | 337 | 5.0 | 9.0 | 0.00 | 0.00 | 0.00 | 54 | 1016.1 |
| 20260504001715 | 73 | 307 | 5.0 | 9.0 | 0.00 | 0.00 | 0.00 | 54 | 1016.0 |
| 20260504001315 | 73 | 258 | 3.0 | 8.0 | 0.00 | 0.00 | 0.00 | 54 | 1016.0 |
| 20260504000515 | 73 | 228 | 3.0 | 7.0 | 0.00 | 0.00 | 0.00 | 54 | 1016.0 |
| 20260504000114 | 73 | 213 | 6.0 | 6.0 | 0.00 | 0.00 | 0.00 | 54 | 1016.0 |
| 20260503235714 | 73 | 240 | 3.0 | 9.0 | 0.00 | 0.00 | 0.00 | 54 | 1016.0 |
| 20260503235314 | 73 | 260 | 2.0 | 7.0 | 0.00 | 0.00 | 0.00 | 53 | 1015.9 |
| 20260503234914 | 73 | 281 | 4.0 | 8.0 | 0.00 | 0.00 | 0.00 | 54 | 1016.0 |
| 20260503234514 | 73 | 324 | 3.0 | 9.0 | 0.00 | 0.00 | 0.00 | 54 | 1015.9 |
| 20260503234114 | 73 | 9 | 3.0 | 9.0 | 0.00 | 0.00 | 0.00 | 54 | 1015.8 |
| 20260503233313 | 73 | 309 | 5.0 | 7.0 | 0.00 | 0.00 | 0.00 | 54 | 1016.0 |
| 20260503232913 | 73 | 238 | 0.0 | 12.0 | 0.00 | 0.00 | 0.00 | 54 | 1015.9 |
| 20260503232513 | 73 | 254 | 5.0 | 7.0 | 0.00 | 0.00 | 0.00 | 54 | 1015.9 |
| 20260503232113 | 73 | 5 | 5.0 | 8.0 | 0.00 | 0.00 | 0.00 | 54 | 1015.8 |
| 20260503231713 | 73 | 232 | 6.0 | 8.0 | 0.00 | 0.00 | 0.00 | 54 | 1015.8 |
| 20260503230513 | 73 | 317 | 3.0 | 7.0 | 0.00 | 0.00 | 0.00 | 54 | 1015.9 |
| 20260503230112 | 73 | 306 | 2.0 | 8.0 | 0.00 | 0.00 | 0.00 | 54 | 1016.0 |
| 20260503225712 | 73 | 247 | 0.0 | 7.0 | 0.00 | 0.00 | 0.00 | 55 | 1016.0 |
| 20260503225312 | 73 | 211 | 4.0 | 6.0 | 0.00 | 0.00 | 0.00 | 55 | 1016.1 |
| 20260503224912 | 73 | 213 | 5.0 | 8.0 | 0.00 | 0.00 | 0.00 | 54 | 1016.1 |
| 20260503224512 | 73 | 355 | 4.0 | 6.0 | 0.00 | 0.00 | 0.00 | 55 | 1016.2 |
| 20260503224111 | 73 | 29 | 3.0 | 7.0 | 0.00 | 0.00 | 0.00 | 55 | 1016.2 |
| 20260503223711 | 73 | 337 | 2.0 | 6.0 | 0.00 | 0.00 | 0.00 | 55 | 1016.2 |
| 20260503223311 | 72 | 339 | 0.0 | 9.0 | 0.00 | 0.00 | 0.00 | 55 | 1016.2 |
| 20260503222911 | 72 | 47 | 3.0 | 8.0 | 0.00 | 0.00 | 0.00 | 55 | 1016.1 |
| 20260503222511 | 72 | 337 | 1.0 | 5.0 | 0.00 | 0.00 | 0.00 | 56 | 1016.2 |
| 20260503222112 | 72 | 315 | 5.0 | 6.0 | 0.00 | 0.00 | 0.00 | 55 | 1016.3 |
| 20260503221711 | 72 | 285 | 3.0 | 8.0 | 0.00 | 0.00 | 0.00 | 56 | 1016.3 |
| 20260503220510 | 72 | 239 | 0.0 | 10.0 | 0.00 | 0.00 | 0.00 | 58 | 1016.3 |
| 20260503215710 | 72 | 270 | 0.0 | 4.0 | 0.00 | 0.00 | 0.00 | 57 | 1016.3 |
| 20260503215310 | 72 | 297 | 4.0 | 11.0 | 0.00 | 0.00 | 0.00 | 58 | 1016.4 |
| 20260503214910 | 72 | 330 | 2.0 | 4.0 | 0.00 | 0.00 | 0.00 | 58 | 1016.5 |
| 20260503214509 | 71 | 47 | 0.0 | 6.0 | 0.00 | 0.00 | 0.00 | 58 | 1016.4 |
| 20260503214109 | 71 | 236 | 0.0 | 3.0 | 0.00 | 0.00 | 0.00 | 58 | 1016.6 |
| 20260503213709 | 71 | 328 | 5.0 | 10.0 | 0.00 | 0.00 | 0.00 | 58 | 1016.6 |
| 20260503213309 | 71 | 303 | 0.0 | 5.0 | 0.00 | 0.00 | 0.00 | 58 | 1016.6 |
| 20260503212909 | 71 | 54 | 0.0 | 6.0 | 0.00 | 0.00 | 0.00 | 58 | 1016.7 |
| 20260503212109 | 70 | 324 | 3.0 | 7.0 | 0.00 | 0.00 | 0.00 | 58 | 1016.8 |
| 20260503211708 | 70 | 355 | 7.0 | 7.0 | 0.00 | 0.00 | 0.00 | 58 | 1016.8 |
| 20260503211308 | 70 | 348 | 0.0 | 4.0 | 0.00 | 0.00 | 0.00 | 59 | 1016.8 |
| 20260503210108 | 70 | 275 | 0.0 | 8.0 | 0.00 | 0.00 | 0.00 | 59 | 1016.7 |
| 20260503205708 | 70 | 344 | 2.0 | 8.0 | 0.00 | 0.00 | 0.00 | 59 | 1016.7 |
| 20260503205308 | 70 | 33 | 8.0 | 8.0 | 0.00 | 0.00 | 0.00 | 59 | 1016.5 |
| 20260503204907 | 70 | 335 | 7.0 | 11.0 | 0.00 | 0.00 | 0.00 | 59 | 1016.7 |
| 20260503204107 | 70 | 288 | 0.0 | 8.0 | 0.00 | 0.00 | 0.00 | 59 | 1016.7 |
| 20260503203707 | 70 | 346 | 0.0 | 7.0 | 0.00 | 0.00 | 0.00 | 59 | 1016.6 |
| 20260503203307 | 70 | 216 | 0.0 | 5.0 | 0.00 | 0.00 | 0.00 | 59 | 1016.6 |
| 20260503201706 | 70 | 238 | 3.0 | 4.0 | 0.00 | 0.00 | 0.00 | 60 | 1016.6 |
| 20260503201306 | 70 | 315 | 0.0 | 3.0 | 0.00 | 0.00 | 0.00 | 61 | 1016.7 |
| 20260503200906 | 70 | 209 | 6.0 | 10.0 | 0.00 | 0.00 | 0.00 | 61 | 1016.5 |
| 20260503200506 | 69 | 22 | 0.0 | 10.0 | 0.00 | 0.00 | 0.00 | 61 | 1016.5 |
| 20260503200106 | 69 | 297 | 0.0 | 7.0 | 0.00 | 0.00 | 0.00 | 61 | 1016.7 |
| 20260503195706 | 69 | 27 | 0.0 | 6.0 | 0.00 | 0.00 | 0.00 | 62 | 1016.7 |
| 20260503195305 | 69 | 270 | 0.0 | 6.0 | 0.00 | 0.00 | 0.00 | 62 | 1016.7 |
| 20260503194905 | 69 | 9 | 4.0 | 7.0 | 0.00 | 0.00 | 0.00 | 61 | 1016.6 |
| 20260503194505 | 69 | 231 | 0.0 | 6.0 | 0.00 | 0.00 | 0.00 | 63 | 1016.8 |
| 20260503194105 | 69 | 299 | 0.0 | 6.0 | 0.00 | 0.00 | 0.00 | 62 | 1016.8 |
| 20260503193305 | 68 | 15 | 0.0 | 6.0 | 0.00 | 0.00 | 0.00 | 62 | 1016.8 |
| 20260503192504 | 68 | 326 | 3.0 | 3.0 | 0.00 | 0.00 | 0.00 | 62 | 1016.8 |
| 20260503192104 | 68 | 278 | 0.0 | 7.0 | 0.00 | 0.00 | 0.00 | 63 | 1016.9 |
| 20260503191704 | 68 | 225 | 0.0 | 7.0 | 0.00 | 0.00 | 0.00 | 64 | 1017.1 |
| 20260503191304 | 68 | 212 | 0.0 | 8.0 | 0.00 | 0.00 | 0.00 | 64 | 1016.9 |
| 20260503190505 | 68 | 282 | 0.0 | 1.0 | 0.00 | 0.00 | 0.00 | 65 | 1017.1 |
| 20260503190104 | 67 | 328 | 0.0 | 14.0 | 0.00 | 0.00 | 0.00 | 65 | 1017.0 |
| 20260503185704 | 67 | 220 | 0.0 | 0.0 | 0.00 | 0.00 | 0.00 | 65 | 1017.1 |
| 20260503185305 | 67 | 229 | 0.0 | 5.0 | 0.00 | 0.00 | 0.00 | 66 | 1017.0 |
| 20260503184904 | 67 | 225 | 0.0 | 5.0 | 0.00 | 0.00 | 0.00 | 67 | 1017.0 |
| 20260503184504 | 66 | 222 | 5.0 | 5.0 | 0.00 | 0.00 | 0.00 | 66 | 1017.1 |
| 20260503183303 | 66 | 258 | 0.0 | 0.0 | 0.00 | 0.00 | 0.00 | 67 | 1017.1 |
| 20260503182903 | 65 | 222 | 0.0 | 0.0 | 0.00 | 0.00 | 0.00 | 68 | 1017.1 |
| 20260503182503 | 65 | 252 | 0.0 | 0.0 | 0.00 | 0.00 | 0.00 | 67 | 1017.2 |
| 20260503182103 | 65 | 328 | 0.0 | 0.0 | 0.00 | 0.00 | 0.00 | 67 | 1017.1 |
| 20260503181703 | 65 | 45 | 0.0 | 7.0 | 0.00 | 0.00 | 0.00 | 68 | 1017.1 |
| 20260503181303 | 65 | 2 | 7.0 | 7.0 | 0.00 | 0.00 | 0.00 | 68 | 1017.2 |
| 20260503180903 | 64 | 328 | 0.0 | 0.0 | 0.00 | 0.00 | 0.00 | 68 | 1017.2 |
| 20260503175702 | 64 | 220 | 0.0 | 10.0 | 0.00 | 0.00 | 0.00 | 70 | 1017.2 |
| 20260503175304 | 63 | 315 | 0.0 | 5.0 | 0.00 | 0.00 | 0.00 | 71 | 1017.2 |
| 20260503174902 | 63 | 11 | 0.0 | 4.0 | 0.00 | 0.00 | 0.00 | 71 | 1017.2 |
| 20260503174502 | 63 | 348 | 0.0 | 0.0 | 0.00 | 0.00 | 0.00 | 72 | 1017.2 |
| 20260503174102 | 62 | 333 | 0.0 | 0.0 | 0.00 | 0.00 | 0.00 | 72 | 1017.3 |
| 20260503173301 | 62 | 279 | 0.0 | 0.0 | 0.00 | 0.00 | 0.00 | 73 | 1017.2 |
| 20260503172501 | 62 | 6 | 0.0 | 4.0 | 0.00 | 0.00 | 0.00 | 74 | 1017.3 |
| 20260503172101 | 61 | 303 | 0.0 | 0.0 | 0.00 | 0.00 | 0.00 | 75 | 1017.2 |
| 20260503171301 | 61 | 281 | 0.0 | 0.0 | 0.00 | 0.00 | 0.00 | 75 | 1017.2 |
| 20260503170500 | 61 | 315 | 0.0 | 5.0 | 0.00 | 0.00 | 0.00 | 75 | 1017.2 |
| 20260503150853 | 57 | 6 | 0.0 | 5.0 | 0.00 | 0.00 | 0.00 | 82 | 1016.5 |
| 20260503150453 | 57 | 315 | 0.0 | 0.0 | 0.00 | 0.00 | 0.00 | 81 | 1016.5 |
| 20260503131249 | 56 | 315 | 0.0 | 0.0 | 0.00 | 0.00 | 0.00 | 82 | 1015.1 |
| 20260503130849 | 56 | 342 | 0.0 | 0.0 | 0.00 | 0.00 | 0.00 | 83 | 1015.0 |
| 20260503130449 | 56 | 315 | 0.0 | 1.0 | 0.00 | 0.00 | 0.00 | 82 | 1014.9 |
| 20260503110444 | 57 | 289 | 0.0 | 5.0 | 0.00 | 0.00 | 0.00 | 82 | 1014.7 |